Regional Weather Roundup
Issued by NWS

Home | Current Version | Previous Version | Graphics & Text | Print | Product List | Glossary On
Versions: 1 2 3 4 5 6 7 8 9 10 11 12 13 14 15 16 17 18 19 20 21 22 23 24 25 26 27 28 29 30 31 32 33 34 35 36 37 38 39 40 41 42 43 44 45 46 47 48 49 50
213
ASUS43 KMKX 060300
RWRWI

WISCONSIN REGIONAL WEATHER ROUNDUP
NATIONAL WEATHER SERVICE MILWAUKEE/SULLIVAN WI
900 PM CST MON DEC 05 2016

NOTE: "FAIR" INDICATES FEW OR NO CLOUDS BELOW 12,000 FEET WITH NO
SIGNIFICANT WEATHER AND/OR OBSTRUCTIONS TO VISIBILITY.

WIZ001-002-006>008-014>016-023>028-060400-
NORTHWEST WISCONSIN

CITY           SKY/WX    TMP DP  RH WIND       PRES   REMARKS
SUPERIOR ARPT  CLOUDY    35  33  92 E8        29.69F WCI  29
ASHLAND        CLOUDY    36  33  89 MISG      29.73F
HAYWARD        CLOUDY    35  29  78 S9G22     29.70S WCI  28
SIREN          CLOUDY    35  31  85 SE9       29.66F WCI  28
CUMBERLAND     CLOUDY    32  30  93 SE12      29.69S WCI  23
RICE LAKE      CLOUDY    34  32  92 SE10      29.72S WCI  26
CHETEK         CLOUDY    34  31  90 SE7       29.73R WCI  27
LADYSMITH      CLOUDY    35  31  85 S5        29.77R WCI  31
EAU CLAIRE     NOT AVBL
MENOMONIE      CLOUDY    35  32  88 E8        29.74R WCI  28
NEW RICHMOND   CLOUDY    37  31  80 S14       29.68F WCI  28
OSCEOLA        CLOUDY    37  31  80 SE15G23   29.69S WCI  28
$$

WIZ003>005-009-010-017-018-060400-
NORTH CENTRAL WISCONSIN

CITY           SKY/WX    TMP DP  RH WIND       PRES   REMARKS
MANITOWISH WTR CLOUDY    33  33 100 SE9       29.77S WCI  25
ARBOR VITAE    CLOUDY    37  34  90 SE9       29.78F WCI  30
WOODRUFF       CLOUDY    37  34  90 SE9       29.78F WCI  30
RHINELANDER    CLOUDY    34  32  92 SE7       29.81F WCI  28
EAGLE RIVER    CLOUDY    33  32  98 SE6       29.80F WCI  27
LAND O LAKES   CLOUDY    34  33  94 SE7       29.80F WCI  28
PHILLIPS       CLOUDY    33  30  89 SE9       29.75S WCI  25
TOMAHAWK       CLOUDY    32  30  92 SE3       29.81F
MEDFORD        CLOUDY    32  30  92 SE9G17    29.77F WCI  24
MERRILL        CLOUDY    33  32  98 SE7       29.83F FOG     WCI  26
$$

WIZ029-030-035-036-043>047-060400-
CENTRAL WISCONSIN

CITY           SKY/WX    TMP DP  RH WIND       PRES   REMARKS
WAUSAU         CLOUDY    32  30  92 SE8       29.83R WCI  25
MOSINEE        CLOUDY    30  30 100 SE8       29.85S FOG     WCI  23
MARSHFIELD     CLOUDY    32  29  88 SE12      29.81S WCI  23
STEVENS POINT  CLOUDY    30  30 100 SE8       29.86S FOG     WCI  23
WAUPACA        CLOUDY    34  32  92 SE3       29.91R FOG
WAUTOMA        CLOUDY    32  30  92 SE9       29.89F FOG     WCI  24
WISC RAPIDS    CLOUDY    33  32  96 SE8       29.86S WCI  26
CAMP DOUGLAS   NOT AVBL
$$

WIZ011>013-019>022-031-037>040-048>050-060400-
NORTHEAST WISCONSIN

CITY           SKY/WX    TMP DP  RH WIND       PRES   REMARKS
ANTIGO         MOCLDY    31  31 100 SE12      29.85R FOG     WCI  22
SHAWANO        CLOUDY    35  32  90 CALM      29.91S FOG
OCONTO         CLOUDY    33  32  95 SE3       29.92F
STURGEON BAY   CLOUDY   N/A N/A N/A SE5       29.95
GREEN BAY      CLOUDY    35  33  92 SE7       29.93S WCI  29
MANITOWOC      NOT AVBL
APPLETON       CLOUDY    34  32  93 S8        29.91R WCI  27
CLINTONVILLE   CLOUDY    32  32 100 S8        29.91S FOG     WCI  25
OSHKOSH        CLOUDY    32  30  92 S9        29.91F WCI  24
$$

WIZ032>034-041-042-053>061-060400-
SOUTHWEST WISCONSIN

CITY           SKY/WX    TMP DP  RH WIND       PRES   REMARKS
LA CROSSE      CLOUDY    37  31  78 S9        29.80S WCI  30
SPARTA         CLOUDY    35  31  87 SE5       29.83S WCI  30
VIROQUA        CLOUDY    32  32 100 SE14      29.81S WCI  22
BOSCOBEL       CLOUDY    35  31  85 VRB3      29.86F
PRAIRIE DU CHI CLOUDY    34  31  87 E9        29.83F WCI  27
PLATTEVILLE    CLOUDY    32  32 100 SE15      29.87S WCI  22
$$

WIZ056-057-062-063-064-067-068-060400-
SOUTH CENTRAL WISCONSIN

CITY           SKY/WX    TMP DP  RH WIND       PRES   REMARKS
REEDSBURG      CLOUDY    32  32 100 CALM      29.87S
BARABOO/DELLS  CLOUDY    32  31  95 SE7       29.87F FOG     WCI  26
LONE ROCK      NOT AVBL
MINERAL POINT  FOG       32  32 100 SE10      29.85F VSB 1/2 WCI  24
MADISON        CLOUDY    32  30  92 SE10      29.89F FOG     WCI  24
MIDDLETON      NOT AVBL
WATERTOWN      CLOUDY    31  31 100 SE7       29.91F WCI  24
MONROE         FOG       30  30 100 SE18G24   29.89F VSB 1/4 WCI  18
JANESVILLE     CLOUDY    32  32 100 S12       29.93R FOG     WCI  23
$$

WIZ051-052-058>065-066-070>072-060400-
SOUTHEAST WISCONSIN

CITY           SKY/WX    TMP DP  RH WIND       PRES   REMARKS
MILWAUKEE      CLOUDY    35  32  88 S5        29.95F FOG     WCI  31
WAUKESHA       CLOUDY    30  28  93 SE9       29.94F FOG     WCI  22
MILWAUKEE/TIMM CLOUDY    32  30  93 SE5       29.96F FOG     WCI  27
RACINE         CLOUDY    35  32  88 S8        29.97S FOG     WCI  29
BURLINGTON     CLOUDY    31  31  99 CALM      29.94S FOG
KENOSHA        CLOUDY    34  32  92 S7        29.96R FOG     WCI  28
FOND DU LAC    CLOUDY    33  28  81 S9        29.91F WCI  25
SHEBOYGAN      CLOUDY    33  31  92 S8        29.95S FOG     WCI  26
WEST BEND      CLOUDY    32  32 100 SE6       29.94F FOG     WCI  26
JUNEAU         CLOUDY    31  30  97 SE8       29.92F FOG     WCI  23
$$

LSZ147-162-060400-
LAKE SUPERIOR

STATION/POSITION TIME  TEMP    WIND        PRES    WAVE
                       AIR SEA DIR/SP/G            HT/PER
                 (UTC) (F)     (DEG/KT/KT) (MB)    (FT/S)
DEVILS ISLAND    0200   39      90/ 21/ 24 1007.6F
PORT WING        0240   37     130/  2/  5 1006.8S
SAXON HARBOR     0240   38     150/  4/ 10 1007.1F
$$

LMZ867-665-643>646-060400-
LAKE MICHIGAN

STATION/POSITION TIME  TEMP    WIND        PRES    WAVE
                       AIR SEA DIR/SP/G            HT/PER
                 (UTC) (F)     (DEG/KT/KT) (MB)    (FT/S)
CHAMBERS ISLAND  0240   36     210/  1/  7 1013.5F
NORTHPORT PIER   0240   35      CALM  /  3 1014.2F
SISTER BAY       0208   35     190/  9/ 11   N/A
ALGOMA LAKESHORE 0221           CALM  /  2   N/A
KEWAUNEE LAKESHO 0230   35     210/  2/  6 1013.7F
SHEBOYGAN LAKESH 0200   37     180/ 16/ 17 1014.6F
PORT WASHINGTON  0240   35     200/  5/  7 1015.2F
MILWAUKEE LAKESH 0230   35     190/  6/  7   N/A
KENOSHA   LAKESH 0200   35     170/  5/  7 1014.6
$$

TC  - TEMPERATURE IN CELSIUS
VSB - VISIBILITY IN STATUTE MILES
WCI - WIND CHILL INDEX
HX  - HEAT INDEX





USA.gov is the U.S. government's official web portal to all federal, state and local government web resources and services.